Theta_e
325 327 329 327 327 323 324 327 325 325 320 326 328 328 325 318 315 314 312 315 321 325 326 327 329 330 331 331 331 332 332 331 330 328 327 327 327 327 326 325 320 317 318 320
325 328 324 323 323 325 325 327 326 324 322 324 328 329 326 321 318 318 318 315 312 318 321 324 327 328 329 331 331 331 332 332 331 330 329 327 327 328 328 327 326 324 322 321
326 323 322 323 324 326 326 327 326 326 320 319 321 325 324 321 316 316 316 317 315 313 314 316 322 326 327 328 329 330 331 331 331 331 329 328 327 327 327 327 327 327 327 325
321 320 322 324 326 324 328 324 325 324 327 330 324 325 321 323 323 320 319 316 317 315 313 313 312 319 326 327 328 328 329 330 330 330 330 329 328 327 327 327 328 328 328 328
321 321 323 325 323 323 324 322 326 326 327 326 323 326 325 321 323 323 322 319 318 317 316 315 314 313 316 320 325 327 328 328 328 329 330 329 329 329 328 328 328 328 328 328
316 311 314 321 321 322 321 325 325 325 327 331 326 327 325 324 322 323 322 322 321 317 316 316 316 315 314 317 319 322 327 327 327 327 328 329 329 329 328 328 328 328 328 328
313 316 314 315 322 322 323 325 329 329 328 332 325 324 327 318 317 321 322 322 322 317 316 317 314 312 313 315 317 320 324 326 327 327 327 328 328 328 328 328 327 326 327 327
309 309 316 315 318 324 324 326 326 329 327 326 318 327 325 319 319 315 316 319 316 313 314 314 313 313 313 314 315 319 323 324 325 326 327 327 327 328 328 327 327 327 327 327
311 309 313 315 316 320 324 326 323 317 303 316 318 319 317 317 316 315 318 312 312 312 310 308 308 311 312 312 313 316 320 322 323 325 325 326 327 327 327 328 327 327 327 327
309 310 314 315 321 320 322 321 326 324 327 326 319 321 321 318 320 317 316 316 316 314 310 307 304 306 309 311 313 314 316 319 320 322 323 324 325 326 327 326 327 326 326 326
307 308 311 318 321 321 321 325 323 323 322 326 324 321 313 317 316 318 319 318 317 316 314 312 305 305 308 310 311 312 314 317 319 321 322 323 324 324 325 325 325 325 325 325
306 309 305 305 310 312 313 311 321 326 327 323 321 321 312 315 316 317 318 318 318 314 311 306 303 303 305 307 309 311 314 316 317 319 321 322 323 323 324 324 325 325 325 324
308 309 301 302 305 308 311 312 311 324 322 326 326 323 311 309 311 311 313 312 311 309 306 303 300 300 300 302 305 308 311 313 314 316 318 321 323 324 324 325 325 324 324 322
308 308 304 303 301 312 312 316 315 315 328 326 325 323 318 310 309 309 308 307 307 306 305 303 301 301 301 302 303 305 308 311 314 316 319 320 322 322 320 314 309 307 307 307
308 311 309 309 309 310 311 315 316 317 320 326 324 323 321 318 314 308 307 307 306 305 305 303 301 300 300 301 303 304 306 308 311 311 311 309 307 307 306 306 307 307 307 307
309 304 309 311 311 313 312 311 312 313 314 315 319 323 320 319 313 311 313 307 306 306 305 304 301 300 300 301 302 304 305 305 306 306 307 306 306 306 306 306 306 306 306 306
301 299 296 302 303 304 307 306 308 311 312 313 315 321 320 319 316 314 312 307 309 309 304 304 303 302 302 301 303 303 305 306 306 306 306 306 306 305 306 306 305 305 305 305
300 295 297 302 296 302 303 304 306 309 312 312 313 315 319 320 318 312 310 311 311 311 305 303 303 304 302 302 303 305 305 305 305 305 305 305 305 304 304 304 304 303 303 302
299 299 291 297 295 298 299 299 308 314 315 312 312 312 314 318 311 313 310 310 312 311 307 306 305 305 302 302 304 304 303 304 304 304 304 304 303 303 303 302 302 301 300 300
298 299 299 294 291 295 298 298 302 305 313 311 312 313 313 313 320 321 319 308 307 306 303 302 303 303 301 302 304 302 301 302 302 304 304 303 303 303 302 301 299 297 298 298
293 300 303 301 301 298 300 299 310 314 316 313 313 313 314 316 318 318 313 310 308 306 302 302 301 300 301 301 301 299 300 300 304 303 303 302 302 302 302 299 297 297 297 298
297 295 300 300 304 304 301 302 302 303 305 307 312 313 314 314 315 315 314 310 302 301 298 299 298 298 301 301 300 299 299 303 302 302 301 301 300 299 297 297 296 297 298 298
298 298 299 301 301 302 301 302 303 304 305 306 310 313 312 313 314 315 315 315 311 302 297 298 298 297 298 299 299 298 300 301 300 300 299 298 296 295 295 296 296 296 297 297
297 297 299 299 299 300 301 302 304 303 304 307 309 311 311 312 313 312 313 313 309 299 297 297 296 295 294 296 299 301 300 300 299 296 294 294 294 294 295 295 296 296 296 296
300 299 299 300 300 300 300 301 304 305 305 304 302 303 308 310 310 310 308 301 300 299 295 296 297 296 296 295 297 299 298 298 294 292 291 292 293 293 294 294 295 296 296 296
285 286 296 304 289 287 292 294 288 293 296 302 304 300 298 301 306 302 301 299 299 296 292 293 295 295 292 292 292 294 295 295 293 291 291 291 291 291 292 291 290 292 293 291
Wind_Speed
8 8 17 26 15 3 7 5 7 4 5 4 9 17 16 7 6 9 10 10 11 13 18 20 27 32 31 31 32 34 34 35 33 33 31 30 31 30 29 29 28 27 27 25
7 17 24 15 9 5 2 5 4 1 3 5 5 17 15 9 8 13 14 12 12 11 9 14 24 28 33 37 38 37 38 37 37 36 35 29 28 32 33 31 29 29 29 29
16 19 12 13 12 14 13 10 4 4 2 2 4 17 15 12 9 10 10 13 12 15 16 12 18 29 31 34 39 41 42 41 40 39 35 31 24 23 25 31 34 34 32 32
12 17 10 17 16 17 18 13 5 5 5 7 8 11 14 8 17 15 16 14 18 14 13 12 18 22 32 39 36 39 40 42 43 40 36 35 30 27 30 31 33 33 33 34
7 7 18 12 25 16 10 6 13 14 7 2 5 4 11 8 14 13 14 17 18 17 17 17 20 29 39 38 39 41 40 40 40 41 42 39 34 35 29 31 32 31 32 32
6 5 2 18 11 17 6 5 4 2 10 13 22 14 18 14 8 12 19 19 15 14 16 16 26 31 31 35 37 38 37 40 39 41 42 39 37 34 26 32 33 34 33 32
22 12 1 1 12 9 9 16 8 8 7 5 15 9 26 5 9 15 19 21 20 12 13 17 16 20 26 34 36 37 37 38 41 41 41 42 42 38 37 35 34 29 32 32
15 10 21 15 12 10 23 15 4 11 5 20 8 13 12 13 18 10 16 17 11 8 11 11 12 20 26 36 39 39 37 38 39 40 41 42 40 38 38 33 34 35 34 33
11 11 3 12 12 18 13 19 27 2 2 2 5 11 9 5 6 8 19 8 14 16 12 13 13 23 25 29 36 39 38 38 39 40 39 38 39 38 39 39 35 34 32 29
4 2 5 8 3 16 24 11 12 10 9 11 5 18 16 12 20 11 12 18 20 19 11 11 10 20 27 30 34 37 40 41 41 38 36 36 36 37 37 34 33 31 28 26
3 4 4 4 10 18 14 14 15 13 14 12 18 17 9 16 15 19 22 21 18 16 15 15 9 16 21 25 29 33 38 39 35 33 32 32 32 31 31 31 29 27 24 23
6 1 6 16 7 4 5 4 21 13 15 18 22 23 1 15 22 21 21 24 16 8 8 5 5 12 18 23 27 32 35 35 34 32 30 28 26 24 24 25 24 22 22 19
10 6 3 10 5 10 12 16 15 24 9 13 18 22 4 6 7 10 11 10 9 4 5 6 7 8 15 19 23 27 29 30 27 25 24 23 23 23 23 22 21 20 20 20
18 4 8 13 12 3 13 18 25 27 18 18 19 27 19 9 10 9 10 9 7 7 8 9 8 10 17 22 25 26 25 26 26 25 24 24 24 23 21 19 17 17 16 15
11 6 5 16 16 13 18 14 16 15 24 17 27 25 33 21 12 7 8 5 7 9 10 10 8 6 11 19 23 23 24 26 27 27 26 25 22 20 18 16 15 13 12 11
2 5 4 16 14 10 14 17 23 25 25 19 26 26 30 19 8 10 16 6 9 11 11 9 9 10 10 19 26 30 30 30 28 27 25 23 21 19 17 16 14 14 13 12
5 3 3 13 10 11 10 19 20 21 28 26 24 25 43 28 18 16 8 10 16 15 11 13 15 16 21 27 34 33 34 32 29 26 24 23 21 19 17 16 16 15 13 11
4 4 1 8 4 7 14 11 16 22 27 24 23 29 35 31 19 8 11 17 19 16 11 12 12 18 26 34 37 35 33 32 31 27 25 23 22 20 18 17 16 14 12 11
10 5 2 6 6 15 22 16 8 6 27 27 26 31 34 25 5 16 18 18 21 16 15 16 25 26 24 33 40 35 33 32 29 28 27 25 22 21 20 19 18 15 13 11
12 15 9 6 5 10 27 26 9 15 23 28 21 33 36 27 14 27 35 11 15 13 9 13 24 28 30 35 43 39 36 34 33 32 29 24 22 21 22 20 17 13 12 11
4 5 15 17 10 9 26 15 3 8 11 19 23 32 34 19 29 41 9 14 18 18 19 22 26 27 35 39 44 33 34 34 37 29 25 24 23 23 22 21 18 17 16 13
10 6 6 7 10 19 32 10 18 22 25 23 15 25 24 19 25 23 21 14 11 13 9 22 18 22 33 43 42 30 31 38 31 30 28 26 24 24 24 22 21 19 17 14
10 16 14 14 13 27 10 11 16 19 23 29 21 26 24 21 26 28 24 26 19 13 10 22 21 20 31 40 40 29 32 35 33 31 30 28 25 25 24 25 23 20 16 16
10 12 14 21 30 35 25 14 17 12 23 28 28 22 22 27 27 23 20 18 14 10 12 19 19 15 19 34 38 36 41 38 37 33 31 30 29 27 24 22 21 22 20 17
10 3 23 27 27 26 26 16 23 25 24 21 13 13 22 20 23 20 13 9 8 9 9 20 19 18 24 35 38 35 42 41 35 31 30 31 30 28 27 23 22 21 18 18
5 5 6 15 9 10 10 8 16 18 20 21 20 16 11 13 20 10 11 9 10 11 12 13 16 17 21 28 28 37 41 41 37 29 28 28 28 27 27 25 20 14 15 14
Wind_Direction
182 207 208 210 207 160 162 175 202 171 154 139 218 253 262 234 220 253 242 241 235 233 243 231 228 225 225 225 226 225 223 225 223 221 222 227 227 230 234 234 235 237 237 238
197 219 219 216 206 238 267 189 180 258 140 196 193 258 255 253 237 234 236 237 234 239 235 224 226 224 222 224 224 225 227 227 226 226 227 225 231 236 239 240 241 241 242 241
211 223 222 213 218 223 235 218 168 169 135 273 36 272 254 255 244 245 239 242 235 223 233 231 215 218 221 221 225 226 228 227 229 228 225 229 231 237 240 241 242 243 244 245
234 251 192 216 224 201 233 212 195 152 166 235 181 274 242 225 239 230 236 225 235 224 228 228 214 212 220 228 226 230 228 226 228 225 220 220 217 223 231 239 244 247 247 247
219 161 209 207 219 207 228 165 206 225 236 275 207 272 274 184 235 244 245 234 231 222 217 222 218 218 226 229 230 232 228 226 224 222 222 220 220 230 230 240 249 250 253 252
228 146 149 226 215 206 148 150 149 151 220 234 228 219 258 234 203 242 249 251 235 211 219 224 221 223 224 228 230 228 224 225 222 222 222 218 221 224 224 233 239 246 250 254
241 230 159 234 225 192 191 211 220 237 228 232 206 199 233 254 204 215 233 244 247 209 210 221 212 208 214 222 224 225 223 220 221 222 222 222 226 228 230 233 236 234 247 251
212 231 202 201 208 204 211 203 198 200 198 229 150 224 234 229 227 211 231 241 263 230 222 224 215 211 214 223 223 219 215 217 221 222 224 227 226 227 233 235 239 247 250 257
191 235 243 181 197 203 205 211 221 19 58 343 179 267 275 206 253 256 244 250 251 254 236 222 215 221 220 220 222 218 214 216 220 221 224 224 228 227 233 240 242 246 254 260
196 314 206 220 165 215 216 194 203 218 207 230 232 239 235 201 218 227 240 243 245 245 243 238 216 221 227 231 230 225 220 218 221 222 224 227 232 234 236 238 245 248 256 260
156 142 225 101 200 216 214 233 215 221 212 235 246 249 196 211 209 219 225 240 247 241 239 247 233 231 228 227 225 223 217 215 216 217 222 225 230 233 237 240 245 248 252 254
195 94 252 240 216 194 241 236 252 210 209 225 230 244 166 215 199 210 217 226 241 245 262 237 210 220 208 211 214 211 209 210 212 213 216 220 225 227 228 231 235 239 243 245
157 211 323 320 250 223 235 248 257 253 217 218 220 247 196 211 202 224 231 240 256 238 221 207 187 206 199 200 201 201 206 209 210 208 208 208 211 214 219 222 225 229 231 233
169 166 189 224 230 341 221 238 250 248 228 221 216 244 219 214 204 213 230 237 252 222 210 215 209 196 195 196 194 189 190 192 190 190 191 195 200 206 210 212 214 219 224 228
173 224 222 255 274 294 268 256 256 274 254 238 227 228 249 238 230 222 238 247 218 220 215 212 212 218 198 195 198 192 185 181 179 176 180 185 187 193 197 201 203 208 214 221
236 262 227 261 261 257 258 287 285 277 257 289 262 267 259 241 225 215 227 230 242 240 222 201 197 197 202 199 195 191 185 181 178 178 182 183 185 191 194 197 199 201 204 210
178 148 99 265 268 277 267 244 254 256 250 238 259 243 257 259 254 240 222 213 238 249 220 200 206 203 200 201 196 191 188 182 183 185 184 184 186 191 195 198 202 199 198 200
182 94 117 267 38 266 245 207 240 255 267 243 234 253 262 258 263 240 217 218 234 237 232 216 208 213 204 199 198 192 187 186 187 187 187 188 189 191 193 195 198 192 187 185
190 152 266 257 241 281 292 261 240 236 266 252 243 242 253 263 334 268 236 224 229 222 228 225 212 210 198 195 196 191 186 188 188 189 191 191 191 191 190 190 190 185 176 171
210 204 199 224 178 237 257 266 230 246 255 251 223 241 246 243 240 255 242 213 232 228 202 210 201 197 191 197 194 188 186 187 192 194 192 191 193 195 188 185 177 169 159 158
142 205 216 239 243 261 259 236 80 232 253 249 227 235 240 223 224 243 128 224 223 218 215 205 190 190 203 193 189 182 183 190 197 188 186 188 190 190 184 174 169 160 159 158
197 180 198 229 236 264 253 273 217 239 245 266 271 259 255 244 253 257 244 235 213 210 188 190 182 199 195 195 186 182 186 194 185 181 180 179 180 180 174 167 158 157 157 158
243 214 229 211 227 242 222 221 225 245 249 259 246 247 260 252 248 245 236 237 230 212 193 188 192 184 194 191 184 178 189 183 176 175 175 173 171 171 170 159 154 151 161 165
250 233 239 254 254 260 264 245 230 232 248 249 251 250 239 247 251 251 247 234 227 195 198 185 177 181 186 189 190 191 184 178 176 170 169 167 164 166 161 157 153 158 168 168
254 199 240 250 255 265 261 269 250 248 246 243 234 225 238 245 252 241 240 232 212 207 189 182 191 194 192 185 186 189 182 177 166 163 162 160 163 163 157 156 162 168 168 177
25 348 269 261 8 312 286 324 332 318 303 269 247 239 237 229 240 224 231 214 199 195 178 185 188 183 170 171 174 178 178 175 162 157 158 159 157 157 152 146 139 150 154 154